Location: Newark
(35.9031°N, 139.7175°E)
Time: 05:42:52
(UTC+00:00)

Tiros 1 despin weight - All Passes

Search period start: 06 June 2020 00:00
Search period end: 16 June 2020 00:00
Orbit: 593 x 642 km, 48.2° (Epoch: 05 June)

Date Brightness Start Highest point End Pass type
(mag) Time Alt. Az. Time Alt. Az. Time Alt. Az.
06 Jun - 00:29:18 10° WNW 00:32:50 21° NNW 00:36:20 10° NE daylight
06 Jun - 02:12:28 10° NW 02:15:41 18° N 02:18:52 10° NE daylight
06 Jun - 03:53:53 10° NW 03:58:11 40° NNE 04:02:25 10° E daylight
06 Jun - 05:35:32 10° WNW 05:39:44 39° SW 05:43:52 10° SSE daylight
06 Jun - 21:20:58 10° SW 21:25:31 51° SE 21:30:03 10° ENE daylight
06 Jun - 23:02:56 10° W 23:07:13 35° NNW 23:11:29 10° NE daylight
07 Jun - 00:46:38 10° NW 00:49:50 18° N 00:52:59 10° NE daylight
07 Jun - 02:29:01 10° NW 02:32:39 22° NNE 02:36:14 10° ENE daylight
07 Jun - 04:10:16 10° NW 04:14:49 70° NE 04:19:17 10° ESE daylight
07 Jun - 05:52:49 10° W 05:55:58 19° SW 05:59:05 10° S daylight
07 Jun - 19:57:52 10° S 20:00:50 17° SE 20:03:48 10° E daylight
07 Jun - 21:37:15 10° WSW 21:41:57 82° NW 21:46:38 10° NE daylight
07 Jun - 23:20:13 10° WNW 23:24:02 24° NNW 23:27:51 10° NE daylight
08 Jun - 01:03:43 10° NW 01:06:50 17° N 01:09:57 10° NE daylight
08 Jun - 02:45:25 10° NW 02:49:31 31° NNE 02:53:32 10° E daylight
08 Jun - 04:26:49 10° WNW 04:31:17 60° SW 04:35:41 10° SE daylight
08 Jun - 20:12:50 10° SSW 20:17:03 34° SE 20:21:17 10° ENE daylight
08 Jun - 21:54:02 10° WSW 21:58:33 46° NNW 22:03:02 10° NE daylight
08 Jun - 23:37:36 10° WNW 23:40:59 19° N 23:44:21 10° NE daylight
09 Jun - 01:20:27 10° NW 01:23:50 20° N 01:27:13 10° ENE daylight
09 Jun - 03:01:46 10° NW 03:06:14 49° NNE 03:10:37 10° ESE daylight
09 Jun - 04:43:41 10° WNW 04:47:36 29° SW 04:51:28 10° SSE daylight
09 Jun - 18:51:46 10° SE 18:52:30 10° SE 18:53:14 10° ESE visible
09 Jun - 20:28:45 10° SW 20:33:24 69° SE 20:38:04 10° ENE daylight
09 Jun - 22:11:10 10° W 22:15:17 30° NNW 22:19:23 10° NE daylight
09 Jun - 23:54:50 10° NW 23:57:59 18° N 00:01:07 10° NE daylight
10 Jun - 01:36:54 10° NW 01:40:46 25° NNE 01:44:34 10° ENE daylight
10 Jun - 03:18:11 10° NW 03:22:48 89° SW 03:27:18 10° SE daylight
10 Jun - 05:01:31 10° W 05:03:47 14° SW 05:06:02 10° SSW daylight
10 Jun - 19:05:00 10° S 19:08:39 23° SE 19:12:18 10° E daylight
10 Jun - 20:45:16 10° WSW 20:49:55 64° NNW 20:54:34 10° NE daylight
10 Jun - 22:28:30 10° WNW 22:32:10 22° NNW 22:35:47 10° NE daylight
11 Jun - 00:11:46 10° NW 00:15:00 18° N 00:18:14 10° NE daylight
11 Jun - 01:53:16 10° NW 01:57:35 37° NNE 02:01:48 10° E daylight
11 Jun - 03:34:50 10° WNW 03:39:12 44° SW 03:43:28 10° SSE daylight
11 Jun - 19:20:27 10° SSW 19:24:55 46° SE 19:29:24 10° ENE daylight
11 Jun - 21:02:12 10° W 21:06:34 38° NNW 21:10:56 10° NE daylight
11 Jun - 22:45:52 10° NW 22:49:08 18° N 22:52:23 10° NE daylight
12 Jun - 00:28:22 10° NW 00:31:59 22° NNE 00:35:33 10° ENE daylight
12 Jun - 02:09:38 10° NW 02:14:14 63° NNE 02:18:44 10° ESE daylight
12 Jun - 03:51:59 10° W 03:55:27 21° SW 03:58:52 10° S daylight
12 Jun - 17:57:42 10° SSE 18:00:17 15° SE 18:02:52 10° E visible
12 Jun - 19:36:39 10° SW 19:41:20 90° NW 19:46:03 10° NE daylight
12 Jun - 21:19:26 10° WNW 21:23:22 26° NNW 21:27:18 10° NE daylight
12 Jun - 23:02:59 10° NW 23:06:09 18° N 23:09:18 10° NE daylight
13 Jun - 00:44:47 10° NW 00:48:52 29° NNE 00:52:53 10° E daylight
13 Jun - 02:26:09 10° WNW 02:30:44 68° SW 02:35:13 10° SE daylight
13 Jun - 18:12:23 10° SSW 18:16:28 30° SE 18:20:34 10° ENE visible
13 Jun - 19:53:20 10° WSW 19:57:54 50° NNW 20:02:28 10° NE daylight
13 Jun - 21:36:48 10° WNW 21:40:17 20° N 21:43:46 10° NE daylight
13 Jun - 23:19:46 10° NW 23:23:10 19° N 23:26:32 10° ENE daylight
14 Jun - 01:01:08 10° NW 01:05:37 46° NNE 01:10:01 10° ESE daylight
14 Jun - 02:42:57 10° WNW 02:47:04 33° SW 02:51:08 10° SSE daylight
14 Jun - 18:28:11 10° SW 18:32:48 62° SE 18:37:27 10° ENE visible
14 Jun - 20:10:25 10° W 20:14:37 32° NNW 20:18:50 10° NE daylight
14 Jun - 21:54:05 10° NW 21:57:17 18° N 22:00:29 10° NE daylight
14 Jun - 23:36:17 10° NW 23:40:06 24° NNE 23:43:54 10° ENE daylight
15 Jun - 01:17:33 10° NW 01:22:12 82° NNE 01:26:46 10° SE daylight
15 Jun - 03:00:30 10° W 03:03:16 16° SW 03:06:01 10° SSW daylight
15 Jun - 17:04:41 10° S 17:08:04 20° SE 17:11:29 10° E visible
15 Jun - 18:44:36 10° WSW 18:49:16 70° NW 18:53:58 10° NE visible
15 Jun - 20:27:44 10° WNW 20:31:29 23° NNW 20:35:13 10° NE daylight
15 Jun - 22:11:04 10° NW 22:14:19 18° N 22:17:33 10° NE daylight
